Voltar ao catálogo

HULIANWANG DIGUI-92

AtivoComunicaçõesLEO
NORAD 66000·PAYLOAD·🇨🇳 China

Lançado Oct 16, 2025 de Wenchang Space Launch Site

Loading…

Próximas Passagens (próximas 24 horas)

TLE

AtualizadoSource: Space-Track

Época: Sep 14, 2026, 05:15 UTC

1 66000U 25231F   26257.21926675 -.00000100  00000-0  51657-4 0  9995
2 66000  50.0040 216.3437 0000293  41.4356 318.6538 13.29327143 44733

Acompanhe HULIANWANG DIGUI-92 em tempo real com AllMySat

Download on the App Store